Meteo Giornale » Osservazioni meteo Stati Uniti (USA) » New York City Central Park

ore: 02:05 - Osservazioni Meteo New York City Central Park
Lat. 40° 47' N Lon. 73° 58' W Alt. 47 metri s.l.m.

coperto America/New_York

10 °C

Coperto

Temp. 24 Ore

9 °C

16 °C

Est/Nord-Est

16.7 Km/h

Dew point 8 °C

Umidità 87 %

Visibilità  10 Km

Il sole sorge alle ore 05:59

Il sole tramonta alle ore 19:48

Data e Ora Cielo e Fenomeni T °C DP °C Um. % Pres. hPa Vis. km Vento km/h
Oggi h: 02:05 coperto Coperto 10 8 87 1020 10 E/NE 16.7
Oggi h: 01:51 coperto Coperto 10 8 87 1020 10 E/NE 14.8
Oggi h: 00:51 coperto Coperto 11 7 76 1020 10 E 9.3
Ieri h: 23:51 coperto Coperto 11 7 76 1021 10 E/NE 11.1
Ieri h: 22:51 coperto Coperto 12 6 66 1021 10 E 14.8
Ieri h: 21:51 coperto Coperto 12 6 66 1021 10 N 5.5
Ieri h: 20:51 coperto Coperto 13 6 62 1021 10 N 5.5
Ieri h: 19:51 coperto Coperto 13 6 62 1021 10 E/SE 11.1
Ieri h: 18:51 coperto Coperto 14 6 58 1021 10 N 5.5
Ieri h: 17:51 molto_nuvoloso Molto Nuvoloso 15 6 54 1021 10 N 9.3
Ieri h: 16:51 coperto Coperto 15 7 58 1021 10 N 5.5
Ieri h: 15:51 coperto Coperto 14 7 62 1021 10 N 0
Ieri h: 14:51 coperto Coperto 16 6 51 1021 10 N 7.4
Ieri h: 13:51 coperto Coperto 16 6 51 1021 10 N 5.5
Ieri h: 12:51 nuvoloso Nuvoloso 14 6 58 1022 14 E 11.1
Ieri h: 11:51 sereno Sereno 15 6 54 1022 10 N 5.5
Ieri h: 10:51 sereno Sereno 14 6 58 1022 14 N 5.5
Ieri h: 09:51 sereno Sereno 13 6 62 1022 10 N 0
Ieri h: 08:51 sereno Sereno 12 7 71 1022 14 E 9.3
Ieri h: 07:51 sereno Sereno 11 7 76 1022 14 N 5.5
Ieri h: 06:51 sereno Sereno 10 7 81 1021 10 N 0
Ieri h: 05:51 sereno Sereno 9 6 81 1021 10 N 0
Ieri h: 04:51 sereno Sereno 10 5 71 1021 10 N 0
Ieri h: 03:51 sereno Sereno 9 5 75 1020 10 N 5.5
Ieri h: 02:51 sereno Sereno 10 3 61 1020 10 N 5.5